Station CAPL1 - 8768094 - Calcasieu Pass, LA Image indicating link to RSS feed of recent meteorological observations for station CAPL1


Conditions at CAPL1 as of
(4:54 pm CDT)
2154 GMT on 07/13/2024:
     

Click on the graph icon in the table below to see a time series plot of the last five days of that observation.

5-day plot - Wind Direction Wind Direction (WDIR):SSW ( 210 deg true )
5-day plot - Wind Speed Wind Speed (WSPD): 8.9 kts
5-day plot - Wind Gust Wind Gust (GST): 11.1 kts
5-day plot - Atmospheric Pressure Atmospheric Pressure (PRES):30.14 in
5-day plot - Air Temperature Air Temperature (ATMP): 86.9 °F
5-day plot - Water Temperature Water Temperature (WTMP): 90.0 °F
5-day plot - Wind Speed at 10 Meters Wind Speed at 10 meters (WSPD10M): 9.7 kts
5-day plot - Wind Speed at 20 Meters Wind Speed at 20 meters (WSPD20M): 9.7 kts
5-day plot -  Wind Speed, Wind Gust and Atmospheric Pressure Combined plot of Wind Speed, Gust, and Air Pressure
NOS Water Level Observation Network Water Level
Previous observations
TIME
(CDT)
5-day plot - Wind Direction
WDIR
 
5-day plot - Wind Speed
WSPD
kts
5-day plot - Wind Gust
GST
kts
5-day plot - Wave Height
WVHT
ft
5-day plot - Dominant Wave Period
DPD
sec
5-day plot - Average Wave Period
APD
sec
5-day plot - Mean Wave Direction
MWD
 
5-day plot - Atmospheric Pressure
PRES
in
5-day plot - Pressure Tendency
PTDY
in
5-day plot - Air Temperature
ATMP
°F
5-day plot - Water Temperature
WTMP
°F
5-day plot - Dew Point
DEWP
°F
5-day plot - Salinity
SAL
psu
5-day plot - Visibility
VIS
nmi
5-day plot - Tide (above MLLW)
TIDE
ft
2024-07-13 04:48 pm SW 8.0 12.0----30.14- 87.1 90.0----
2024-07-13 04:42 pm SW 9.9 12.0----30.14- 86.7 90.0----
2024-07-13 04:36 pm SW 8.0 8.9----30.14- 87.4 90.0----
2024-07-13 04:30 pmSSW 8.0 8.9----30.15-- 90.0----
2024-07-13 04:24 pm SW 7.0 8.9----30.15-- 90.0----
2024-07-13 04:18 pmSSW 7.0 8.9----30.15- 87.3 90.1----
2024-07-13 04:12 pm SW 6.0 8.0----30.16- 87.4 90.1----
2024-07-13 04:06 pm SW 5.1 8.0----30.16- 87.4 90.0----
2024-07-13 04:00 pm SW 7.0 8.9----30.16-0.03 87.4 90.0----
2024-07-13 03:54 pm SW 7.0 8.9----30.16- 87.4 90.0----
2024-07-13 03:48 pmSSW 8.0 11.1----30.16- 87.3 90.0----
2024-07-13 03:42 pm SW 8.9 12.0----30.15- 87.3 89.8----
2024-07-13 03:36 pmSSW 8.9 11.1----30.15- 87.3 89.8----
2024-07-13 03:30 pmSSW 9.9 11.1----30.15-- 89.8----
2024-07-13 03:24 pmSSW 7.0 9.9----30.15-- 89.8----
2024-07-13 03:18 pmSSW 8.0 9.9----30.16- 87.3 90.0----
2024-07-13 03:12 pmSSW 8.0 9.9----30.16- 87.1 90.0----
2024-07-13 03:06 pm SW 8.0 8.9----30.16- 86.4 90.0----
2024-07-13 03:00 pm SW 8.0 8.9----30.16-0.04- 89.8----
2024-07-13 02:54 pmSSW 8.0 8.9----30.16-- 90.1----
2024-07-13 02:48 pm SW 7.0 9.9----30.17-- 90.0----
2024-07-13 02:42 pm SW 8.0 9.9----30.17-- 90.1----
2024-07-13 02:36 pm SW 7.0 8.9----30.17-- 90.0----
2024-07-13 02:30 pm SW 7.0 8.0----30.17- 86.7 90.1----
2024-07-13 02:24 pmSSW 6.0 8.9----30.18- 86.9 90.1----
2024-07-13 02:18 pm SW 7.0 8.9----30.18- 86.7 90.0----
2024-07-13 02:12 pm SW 7.0 7.0----30.18- 86.7 89.8----
2024-07-13 02:06 pm SW 5.1 7.0----30.18- 86.5 89.8----
2024-07-13 02:00 pm SW 6.0 8.0----30.18-0.01- 89.6----
2024-07-13 01:54 pm SW 6.0 8.0----30.18-- 89.6----
2024-07-13 01:48 pmSSW 6.0 8.0----30.18- 86.4 89.6----
2024-07-13 01:42 pm SW 6.0 8.0----30.18- 86.5 89.4----
2024-07-13 01:36 pm SW 7.0 8.9----30.18- 86.2 89.2----
2024-07-13 01:30 pm SW 7.0 8.9----30.18- 86.2 89.4----
2024-07-13 01:24 pmSSW 7.0 8.9----30.19- 86.4 89.6----
2024-07-13 01:18 pmSSW 6.0 8.9----30.19- 86.7 89.6----
2024-07-13 01:12 pmSSW 6.0 8.0----30.19- 86.5 89.8----
2024-07-13 01:06 pmSSW 7.0 8.0----30.19- 86.7 90.0----
2024-07-13 01:00 pmSSW 7.0 8.0----30.19+0.00 86.7 90.0----
2024-07-13 12:54 pmSSW 8.0 8.9----30.19- 86.5 90.1----
2024-07-13 12:48 pmSSW 6.0 8.0----30.19-------
2024-07-13 12:42 pmSSW 5.1 8.0----30.20-------
2024-07-13 12:36 pmSSW 5.1 7.0----30.20-------
2024-07-13 12:30 pm SW 5.1 6.0----30.20- 86.9 89.8----
2024-07-13 12:24 pmSSW 5.1 6.0----30.20- 86.5 89.6----
2024-07-13 12:18 pm SW 5.1 7.0----30.20- 86.4 89.6----
2024-07-13 12:12 pmSSW 5.1 8.0----30.20- 86.4 89.6----
2024-07-13 12:06 pmSSW 5.1 7.0----30.20- 86.5 89.4----
2024-07-13 12:00 pm-------30.20+0.00- 89.2----
2024-07-13 11:54 am-------30.20-- 89.2----
2024-07-13 11:48 am S 5.1 7.0----30.20- 86.7 89.2----
2024-07-13 11:42 am S 4.1 6.0----30.20- 86.7 89.1----
2024-07-13 11:36 am S 5.1 7.0----30.20- 86.4 89.1----
2024-07-13 11:30 amSSW 4.1 6.0------ 86.5 89.2----
2024-07-13 11:24 am S 4.1 7.0------ 86.7 89.4----
2024-07-13 11:18 am S 4.1 6.0----30.20-------
2024-07-13 11:12 am S 4.1 6.0----30.20-------
2024-07-13 11:06 am S 4.1 6.0----30.20-------
2024-07-13 11:00 am S 4.1 5.1----30.19+0.01 86.2 89.8----
2024-07-13 10:54 amSSW 5.1 5.1----30.20- 86.0 89.6----
2024-07-13 10:48 am S 2.9 5.1----30.20- 86.2 89.4----
2024-07-13 10:42 am S 4.1 5.1----30.20- 85.8 89.4----
2024-07-13 10:36 amSSW 5.1 6.0----30.20- 85.8 89.6----
2024-07-13 10:30 amSSW 5.1 6.0----30.20- 85.8 89.4----
2024-07-13 10:24 amSSW 4.1 5.1----30.19- 85.8 89.4----
2024-07-13 10:18 amSSW 5.1 5.1----30.19- 85.8 89.4----
2024-07-13 10:12 am SW 2.9 4.1----30.20- 86.2 89.4----
2024-07-13 10:06 am SW 2.9 4.1----30.19- 86.0 89.4----
2024-07-13 10:00 amWSW 2.9 5.1----30.20+0.04 86.0 89.4----
2024-07-13 09:54 amSSW 2.9 4.1----30.20- 85.8 89.4----
2024-07-13 09:48 am S 2.9 4.1----30.19- 85.6 89.4----
2024-07-13 09:42 am S 2.9 4.1----30.19- 85.6 89.4----
2024-07-13 09:36 am SW 2.9 4.1----30.19- 85.3 89.4----
2024-07-13 09:30 am SW 1.9 4.1----30.19- 85.5 89.4----
2024-07-13 09:24 am S 1.9 4.1----30.19- 85.8 89.4----
2024-07-13 09:18 amSSW 1.9 4.1----30.19- 85.8 89.2----
2024-07-13 09:12 am- 0.0 1.9----30.19- 86.9 89.2----
2024-07-13 09:06 am- 0.0 1.0----30.20- 86.0 89.2----
2024-07-13 09:00 am- 0.0 1.9----30.19+0.05 85.5 89.2----
2024-07-13 08:54 amWNW 1.9 2.9----30.19- 84.9 89.2----
2024-07-13 08:48 amWNW 1.9 2.9----30.19- 84.6 89.2----
2024-07-13 08:42 amWNW 1.0 1.9----30.19- 84.9 89.2----
2024-07-13 08:36 amWNW 1.0 1.9----30.19- 84.4 89.2----
2024-07-13 08:30 amWNW 1.9 2.9----30.19- 84.4 89.2----
2024-07-13 08:24 amNNW 2.9 4.1----30.19- 84.4 89.2----
2024-07-13 08:18 am N 1.9 1.9----30.19- 84.9 89.2----
2024-07-13 08:12 amNNW 1.9 2.9----30.19- 84.7 89.2----
2024-07-13 08:06 am N 1.9 2.9----30.18- 84.9 89.2----
2024-07-13 08:00 am N 1.9 2.9----30.18+0.05 84.9 89.2----
2024-07-13 07:54 amNNW 1.0 1.9----30.18- 84.6 89.2----
2024-07-13 07:48 am N 1.9 2.9----30.18- 84.6 89.2----
2024-07-13 07:42 am N 1.9 2.9----30.17- 84.4 89.2----
2024-07-13 07:36 am N 2.9 4.1----30.17- 84.2 89.2----
2024-07-13 07:30 am N 2.9 4.1----30.17- 84.0 89.2----
2024-07-13 07:24 amNNE 2.9 4.1----30.17- 84.0 89.2----
2024-07-13 07:18 amNNE 2.9 4.1----30.17- 83.8 89.2----
2024-07-13 07:12 amNNE 1.9 2.9----30.16- 83.8 89.2----
2024-07-13 07:06 amNNE 1.9 2.9----30.16- 83.8 89.2----
2024-07-13 07:00 amNNE 2.9 2.9----30.16+0.04 83.8 89.2----
2024-07-13 06:54 amNNE 1.9 2.9----30.16- 83.7 89.2----
2024-07-13 06:48 am- 0.0 1.9----30.15-- 89.4----
2024-07-13 06:42 am- 0.0 1.0----30.16-- 89.4----
2024-07-13 06:36 am NE 1.0 2.9----30.15-- 89.4----
2024-07-13 06:30 amENE 1.9 2.9----30.15-- 89.2----
2024-07-13 06:24 amENE 1.9 2.9----30.15-- 89.2----
2024-07-13 06:18 am NE 1.9 2.9----30.15- 83.8 89.2----
2024-07-13 06:12 amNNE 1.9 1.9----30.14- 84.4 89.2----
2024-07-13 06:06 amNNE 1.9 2.9----30.14- 84.2 89.2----
2024-07-13 06:00 amNNE 1.9 2.9----30.14- 84.0 89.2----
2024-07-13 05:54 am N 2.9 4.1----30.14- 83.8 89.2----
2024-07-13 05:48 am N 2.9 4.1----30.14- 84.0 89.2----
2024-07-13 05:42 am N 2.9 4.1----30.14- 84.0 89.2----
2024-07-13 05:36 amNNE 2.9 2.9----30.14- 83.7 89.2----
2024-07-13 05:30 am N 2.9 5.1----30.14- 83.7 89.2----
2024-07-13 05:24 am N 4.1 5.1----30.14- 83.7 89.2----
2024-07-13 05:18 am N 4.1 5.1----30.13- 83.7 89.4----
2024-07-13 05:12 am N 4.1 5.1----30.13- 84.0 89.4----
2024-07-13 05:06 am N 2.9 2.9----30.13- 83.7 89.4----
2024-07-13 05:00 am N 2.9 4.1----30.13+0.00- 89.4----
2024-07-13 04:54 am N 2.9 4.1----30.13-- 89.4----
2024-07-13 04:48 am N 4.1 4.1----30.12-- 89.4----
2024-07-13 04:42 am N 4.1 5.1----30.12-- 89.4----
2024-07-13 04:36 am N 4.1 5.1----30.12-- 89.6----
2024-07-13 04:30 amNNW 4.1 4.1----30.12- 82.9 89.4----
2024-07-13 04:24 amNNW 4.1 4.1----30.12- 83.7 89.4----
2024-07-13 04:18 am N 4.1 5.1----30.12- 84.0 89.4----
2024-07-13 04:12 am N 2.9 4.1----30.11- 84.0 89.4----
2024-07-13 04:06 am N 2.9 4.1----30.11- 83.7 89.4----
2024-07-13 04:00 am N 4.1 5.1----30.11-0.01 83.7 89.2----
2024-07-13 03:54 am N 4.1 5.1----30.12- 83.8 89.4----
2024-07-13 03:48 amNNW 2.9 4.1----30.11- 84.0 89.2----
2024-07-13 03:42 am N 2.9 2.9----30.11- 84.0 89.2----
2024-07-13 03:36 am N 1.9 2.9----30.11- 83.8 89.2----
2024-07-13 03:30 am N 1.9 2.9----30.11- 83.7 89.4----
2024-07-13 03:24 am- 0.0 2.9----30.11- 83.5 89.4----
2024-07-13 03:18 am NW 2.9 4.1----30.12- 83.8 89.4----
2024-07-13 03:12 am N 4.1 5.1----30.12- 83.5 89.4----
2024-07-13 03:06 am N 2.9 4.1----30.12- 83.8 89.4----
2024-07-13 03:00 am- 0.0 2.9------ 83.8 89.4----
2024-07-13 02:54 amNNW 2.9 4.1------ 83.7 89.4----
2024-07-13 02:48 am NW 1.9 2.9----30.12- 83.7 89.4----
2024-07-13 02:42 amWNW 2.9 2.9----30.12- 83.5 89.4----
2024-07-13 02:36 amNNW 1.9 2.9----30.12- 84.0 89.4----
2024-07-13 02:30 am NW 1.9 2.9----30.12- 83.8 89.4----
2024-07-13 02:24 am NW 2.9 4.1----30.12- 83.8 89.2----
2024-07-13 02:18 am NW 2.9 4.1----30.12- 84.0 89.2----
2024-07-13 02:12 am NW 2.9 4.1----30.12- 83.8 89.2----
2024-07-13 02:06 am NW 2.9 4.1----30.12- 84.0 89.2----
2024-07-13 02:00 amWNW 2.9 4.1----30.12+0.00 84.4 89.2----
2024-07-13 01:54 amWNW 1.9 4.1----30.12- 84.9 89.2----
2024-07-13 01:48 am W 1.9 5.1----30.12- 85.5 89.2----
2024-07-13 01:42 amWSW 1.9 2.9----30.13- 86.0 89.4----
2024-07-13 01:36 amWNW 1.9 2.9----30.13- 85.6 89.6----
2024-07-13 01:30 am W 1.9 2.9----30.13- 85.8 89.8----
2024-07-13 01:24 am W 2.9 5.1----30.13- 85.6 89.8----
2024-07-13 01:18 amWSW 5.1 5.1----30.13- 85.8 89.8----
2024-07-13 01:12 amWSW 4.1 5.1----30.13- 85.8 89.8----
2024-07-13 01:06 amWSW 4.1 7.0----30.13- 85.8 89.8----
2024-07-13 01:00 am SW 5.1 8.0----30.13+0.03 86.0 89.8----
2024-07-13 12:54 am SW 6.0 7.0----30.13- 86.0 89.8----
2024-07-13 12:48 am SW 6.0 8.0----30.13- 86.2 89.8----
2024-07-13 12:42 am SW 5.1 7.0----30.13- 86.2 90.0----
2024-07-13 12:36 am SW 6.0 8.9----30.13- 86.4 90.0----
2024-07-13 12:30 am SW 7.0 8.9----30.13- 86.4 90.0----
2024-07-13 12:24 amSSW 5.1 8.0----30.13- 86.4 89.8----
2024-07-13 12:18 amSSW 8.0 8.9----30.13- 86.5 89.8----
2024-07-13 12:12 amSSW 6.0 8.0----30.13- 86.5 89.8----
2024-07-13 12:06 amSSW 5.1 8.0----30.13- 86.7 89.8----
2024-07-13 12:00 amSSW 7.0 8.0----30.13+0.04 86.5 89.8----
2024-07-12 11:54 pm S 5.1 7.0----30.13- 86.2 89.8----
2024-07-12 11:48 pmSSW 7.0 8.0----30.13- 86.4 89.8----
2024-07-12 11:42 pm SW 5.1 8.9----30.13- 86.4 89.8----
2024-07-12 11:36 pm SW 8.0 8.9----30.13- 86.4 89.8----
2024-07-12 11:30 pmSSW 5.1 8.9----30.13- 86.2 89.8----
2024-07-12 11:24 pmSSW 6.0 8.0----30.12- 86.2 89.8----
2024-07-12 11:18 pmSSW 5.1 8.0----30.12- 86.4 89.8----
2024-07-12 11:12 pmSSW 6.0 8.0----30.12- 86.5 90.0----
2024-07-12 11:06 pmSSW 7.0 8.0----30.12- 86.4 90.0----
2024-07-12 11:00 pm SW 7.0 8.0----30.11+0.03 86.4 90.0----
2024-07-12 10:54 pmSSW 5.1 7.0----30.11- 86.4 89.8----
2024-07-12 10:48 pmSSW 7.0 8.9----30.11- 86.4 90.0----
2024-07-12 10:42 pmSSW 7.0 8.0----30.11- 86.5 90.0----
2024-07-12 10:36 pmSSW 6.0 9.9----30.11- 86.5 90.0----
2024-07-12 10:30 pmSSW 8.0 9.9----30.11- 86.5 90.0----
2024-07-12 10:24 pmSSW 6.0 8.0----30.11- 86.4 90.0----
2024-07-12 10:18 pmSSW 7.0 8.0----30.10- 86.4 90.0----
2024-07-12 10:12 pmSSW 5.1 6.0----30.10- 85.5 90.0----
2024-07-12 10:06 pm W 1.9 2.9----30.10- 84.9 90.0----
2024-07-12 10:00 pmWSW 1.9 2.9----30.10+0.02 85.1 90.0----
2024-07-12 09:54 pmWNW 1.9 2.9----30.09- 85.1 90.0----
2024-07-12 09:48 pm N 1.0 1.9----30.09- 85.1 90.0----
2024-07-12 09:42 pm N 1.9 1.9----30.09- 84.9 90.0----
2024-07-12 09:36 pmNNW 1.9 2.9----30.09- 85.1 90.0----
2024-07-12 09:30 pmNNW 1.9 2.9----30.09- 85.1 90.0----
2024-07-12 09:24 pmNNW 1.9 1.9----30.09- 85.1 90.0----
2024-07-12 09:18 pmNNW 1.9 2.9----30.09- 85.1 90.0----
2024-07-12 09:12 pmNNW 1.9 2.9----30.09- 85.3 90.0----
2024-07-12 09:06 pm NW 2.9 2.9----30.09- 85.1 90.0----
2024-07-12 09:00 pm NW 2.9 4.1----30.09+0.01 85.3 90.0----
2024-07-12 08:54 pm NW 4.1 5.1----30.09- 84.9 90.0----
2024-07-12 08:48 pmNNW 4.1 5.1----30.09- 84.9 90.1----
2024-07-12 08:42 pm NW 4.1 5.1----30.09- 84.9 90.1----
2024-07-12 08:36 pm NW 5.1 5.1----30.09- 84.9 90.1----
2024-07-12 08:30 pmNNW 5.1 6.0----30.09- 84.9 90.1----
2024-07-12 08:24 pm N 4.1 5.1----30.09- 85.1 90.1----
2024-07-12 08:18 pmNNW 5.1 6.0----30.09- 84.9 90.1----
2024-07-12 08:12 pmNNW 5.1 6.0----30.09- 85.3 90.1----
2024-07-12 08:06 pmNNW 4.1 5.1----30.09- 85.3 90.1----
2024-07-12 08:00 pm NW 4.1 5.1----30.09+0.01 85.1 90.1----
2024-07-12 07:54 pmWNW 1.9 4.1----30.09- 85.8 90.1----
2024-07-12 07:48 pmWNW 4.1 6.0----30.09- 86.2 90.1----
2024-07-12 07:42 pmWSW 4.1 5.1----30.09- 86.9 90.1----
2024-07-12 07:36 pmWSW 5.1 5.1----30.09- 86.7 90.1----
2024-07-12 07:30 pmWSW 4.1 5.1----30.08- 86.9 90.1----
2024-07-12 07:24 pmWSW 5.1 6.0----30.08- 86.9 90.1----
2024-07-12 07:18 pmWSW 4.1 5.1----30.08- 86.9 90.0----
2024-07-12 07:12 pmWSW 5.1 6.0----30.08- 86.9 90.1----
2024-07-12 07:06 pmWSW 5.1 6.0----30.08- 86.9 90.1----
2024-07-12 07:00 pm SW 6.0 8.9----30.08+0.00 87.1 90.0----
2024-07-12 06:54 pm SW 5.1 6.0----30.08- 87.1 90.1----
2024-07-12 06:48 pm SW 4.1 5.1----30.08- 86.9 90.1----
2024-07-12 06:42 pmSSW 2.9 6.0----30.08- 86.9 90.0----
2024-07-12 06:36 pmWSW 2.9 8.0----30.08- 86.9 90.0----
2024-07-12 06:30 pm SW 5.1 6.0----30.08- 86.9 90.0----
2024-07-12 06:24 pmSSW 2.9 5.1----30.08- 87.1 90.0----
2024-07-12 06:18 pm SW 2.9 6.0----30.08- 87.3 90.0----
2024-07-12 06:12 pmWSW 2.9 6.0----30.07- 87.4 90.0----
2024-07-12 06:06 pm SW 5.1 7.0----30.08- 87.1 90.0----
2024-07-12 06:00 pm S 2.9 5.1----30.08-0.02 87.4 90.0----
2024-07-12 05:54 pm S 5.1 7.0----30.08- 87.1 90.0----
2024-07-12 05:48 pm S 4.1 6.0----30.08-- 90.0----
2024-07-12 05:42 pmSSW 2.9 5.1----30.08-- 90.0----
2024-07-12 05:36 pmSSW 2.9 4.1----30.07-- 90.0----
2024-07-12 05:30 pmSSW 1.9 4.1----30.07- 88.0 89.8----
2024-07-12 05:24 pmSSW 2.9 4.1----30.07- 87.4 89.8----
2024-07-12 05:18 pm SW 2.9 5.1----30.07-- 89.8----
2024-07-12 05:12 pmSSW 4.1 5.1----30.07-- 89.8----
2024-07-12 05:06 pmSSW 2.9 4.1----30.07-- 89.6----
2024-07-12 05:00 pmSSW 2.9 4.1----30.08-0.02 86.7 89.6----
2024-07-12 04:54 pm SW 1.9 2.9----30.08- 86.5 89.4----